When you browse on this site, cookies collect data to enhance your experience and personalize the content and advertising you see.
Visit our Privacy Policy to learn more. By continuing to use the site, you agree to this use of cookies and data.
  • In Switzerland
  • List of Countries
  • For 7 days
  • Water Temperature
  • Weather Map
  • Weather Widgets
  • user-avatar
    Login

    Hourly Weather Kazinki

    Today, 4 June, Thursday

    Time Temperature Precipitation Wind Pressure Humidity
    00:00 +13°C° 0.6 mm 3 mps 732 mmHg 97%
    01:00 +12°C° 0 mm 3 mps 732 mmHg 97%
    02:00 +11°C° 0 mm 3 mps 732 mmHg 96%
    03:00 +11°C° 0 mm 3 mps 733 mmHg 96%
    04:00 +11°C° 0 mm 3 mps 733 mmHg 96%
    05:00 +11°C° 0 mm 3 mps 733 mmHg 95%
    06:00 +11°C° 0 mm 3 mps 733 mmHg 95%
    07:00 +13°C° 0 mm 3 mps 733 mmHg 92%
    08:00 +14°C° 0 mm 3 mps 734 mmHg 88%
    09:00 +16°C° 0 mm 3 mps 734 mmHg 84%
    10:00 +17°C° 0.1 mm 3 mps 734 mmHg 81%
    11:00 +18°C° 0.1 mm 3 mps 734 mmHg 77%
    12:00 +19°C° 0.1 mm 4 mps 734 mmHg 73%
    13:00 +19°C° 0.8 mm 4 mps 734 mmHg 73%
    14:00 +19°C° 0.8 mm 5 mps 734 mmHg 73%
    15:00 +19°C° 0.8 mm 6 mps 734 mmHg 74%
    16:00 +17°C° 0.2 mm 6 mps 734 mmHg 76%
    17:00 +17°C° 0.2 mm 6 mps 734 mmHg 78%
    18:00 +16°C° 0.2 mm 6 mps 734 mmHg 79%
    19:00 +15°C° 0 mm 5 mps 735 mmHg 83%
    20:00 +13°C° 0 mm 4 mps 735 mmHg 87%
    21:00 +12°C° 0 mm 3 mps 736 mmHg 91%
    22:00 +12°C° 0 mm 3 mps 736 mmHg 92%
    23:00 +11°C° 0 mm 3 mps 736 mmHg 93%

    Tomorrow, 5 June, Friday

    Time Temperature Precipitation Wind Pressure Humidity
    00:00 +11°C° 0 mm 4 mps 737 mmHg 94%
    01:00 +11°C° 0 mm 4 mps 737 mmHg 94%
    02:00 +10°C° 0 mm 4 mps 737 mmHg 95%
    03:00 +10°C° 0 mm 4 mps 738 mmHg 95%
    04:00 +11°C° 0 mm 4 mps 738 mmHg 93%
    05:00 +11°C° 0 mm 4 mps 738 mmHg 92%
    06:00 +12°C° 0 mm 4 mps 738 mmHg 90%
    07:00 +13°C° 0.2 mm 5 mps 738 mmHg 87%
    08:00 +14°C° 0.2 mm 6 mps 738 mmHg 83%
    09:00 +16°C° 0.2 mm 7 mps 738 mmHg 80%
    10:00 +17°C° 0.2 mm 7 mps 738 mmHg 76%
    11:00 +17°C° 0.2 mm 7 mps 738 mmHg 72%
    12:00 +18°C° 0.2 mm 8 mps 738 mmHg 69%
    13:00 +18°C° 0.2 mm 7 mps 738 mmHg 71%
    14:00 +17°C° 0.2 mm 7 mps 738 mmHg 73%
    15:00 +17°C° 0.2 mm 7 mps 738 mmHg 75%
    16:00 +15°C° 1.4 mm 6 mps 738 mmHg 81%
    17:00 +14°C° 1.4 mm 5 mps 738 mmHg 87%
    18:00 +13°C° 1.4 mm 4 mps 738 mmHg 93%
    19:00 +12°C° 0.4 mm 4 mps 738 mmHg 94%
    20:00 +12°C° 0.4 mm 3 mps 738 mmHg 94%
    21:00 +11°C° 0.4 mm 3 mps 738 mmHg 95%
    22:00 +12°C° 0 mm 2 mps 738 mmHg 96%
    23:00 +12°C° 0 mm 2 mps 738 mmHg 97%

    Day after tomorrow, 6 June, Saturday

    Time Temperature Precipitation Wind Pressure Humidity
    00:00 +10°C° 0 mm 2 mps 739 mmHg 98%
    01:00 +11°C° 0 mm 1 mps 739 mmHg 98%
    02:00 +11°C° 0 mm 1 mps 739 mmHg 97%
    03:00 +11°C° 0 mm 1 mps 739 mmHg 97%
    04:00 +11°C° 0 mm 1 mps 739 mmHg 97%
    05:00 +12°C° 0 mm 1 mps 740 mmHg 96%
    06:00 +12°C° 0 mm 2 mps 740 mmHg 96%
    07:00 +14°C° 0 mm 2 mps 740 mmHg 92%
    08:00 +16°C° 0 mm 2 mps 740 mmHg 89%
    09:00 +18°C° 0 mm 2 mps 741 mmHg 85%
    10:00 +19°C° 0 mm 3 mps 741 mmHg 83%
    11:00 +20°C° 0 mm 3 mps 741 mmHg 82%
    12:00 +21°C° 0 mm 3 mps 741 mmHg 80%
    13:00 +22°C° 0.2 mm 3 mps 741 mmHg 78%
    14:00 +23°C° 0.2 mm 4 mps 741 mmHg 76%
    15:00 +25°C° 0.2 mm 4 mps 741 mmHg 74%
    16:00 +23°C° 0.7 mm 4 mps 741 mmHg 77%
    17:00 +24°C° 0.7 mm 3 mps 741 mmHg 80%
    18:00 +24°C° 0.7 mm 3 mps 741 mmHg 83%
    19:00 +21°C° 0.2 mm 3 mps 741 mmHg 87%
    20:00 +20°C° 0.2 mm 3 mps 742 mmHg 90%
    21:00 +19°C° 0.2 mm 3 mps 742 mmHg 94%
    22:00 +19°C° 0 mm 3 mps 742 mmHg 94%
    23:00 +18°C° 0 mm 3 mps 742 mmHg 95%

    7 June, Sunday

    Time Temperature Precipitation Wind Pressure Humidity
    00:00 +18°C° 0 mm 3 mps 742 mmHg 95%
    01:00 +17°C° 0 mm 3 mps 743 mmHg 95%
    02:00 +17°C° 0 mm 3 mps 743 mmHg 95%
    03:00 +16°C° 0 mm 3 mps 743 mmHg 94%
    04:00 +17°C° 0 mm 3 mps 743 mmHg 94%
    05:00 +17°C° 0 mm 3 mps 743 mmHg 93%
    06:00 +17°C° 0 mm 3 mps 744 mmHg 93%
    07:00 +19°C° 0 mm 3 mps 744 mmHg 90%
    08:00 +20°C° 0 mm 3 mps 744 mmHg 87%
    09:00 +21°C° 0 mm 3 mps 744 mmHg 84%
    10:00 +22°C° 0 mm 4 mps 745 mmHg 79%
    11:00 +25°C° 0 mm 4 mps 745 mmHg 74%
    12:00 +26°C° 0 mm 4 mps 745 mmHg 70%
    13:00 +26°C° 0 mm 4 mps 745 mmHg 68%
    14:00 +27°C° 0 mm 4 mps 745 mmHg 67%
    15:00 +27°C° 0 mm 4 mps 745 mmHg 66%
    16:00 +27°C° 0 mm 3 mps 745 mmHg 70%
    17:00 +26°C° 0 mm 3 mps 745 mmHg 73%
    18:00 +26°C° 0 mm 2 mps 745 mmHg 76%
    19:00 +25°C° 0 mm 2 mps 745 mmHg 80%
    20:00 +23°C° 0 mm 2 mps 745 mmHg 84%
    21:00 +20°C° 0 mm 2 mps 745 mmHg 87%
    22:00 +20°C° 0 mm 2 mps 745 mmHg 88%
    23:00 +19°C° 0 mm 2 mps 745 mmHg 90%

    8 June, Monday

    Time Temperature Precipitation Wind Pressure Humidity
    00:00 +19°C° 0 mm 2 mps 745 mmHg 91%
    01:00 +18°C° 0 mm 2 mps 745 mmHg 91%
    02:00 +19°C° 0 mm 1 mps 745 mmHg 91%
    03:00 +19°C° 0 mm 1 mps 745 mmHg 91%
    04:00 +19°C° 0 mm 1 mps 745 mmHg 90%
    05:00 +20°C° 0 mm 1 mps 745 mmHg 88%
    06:00 +20°C° 0 mm 1 mps 745 mmHg 87%
    07:00 +21°C° 0 mm 1 mps 745 mmHg 83%
    08:00 +23°C° 0 mm 2 mps 746 mmHg 79%
    09:00 +24°C° 0 mm 2 mps 746 mmHg 75%
    10:00 +25°C° 0 mm 2 mps 746 mmHg 72%
    11:00 +26°C° 0 mm 3 mps 746 mmHg 69%
    12:00 +27°C° 0 mm 3 mps 746 mmHg 66%
    13:00 +27°C° 0 mm 3 mps 745 mmHg 65%
    14:00 +27°C° 0 mm 3 mps 745 mmHg 64%
    15:00 +28°C° 0 mm 3 mps 745 mmHg 64%
    16:00 +27°C° 0.4 mm 2 mps 745 mmHg 68%
    17:00 +27°C° 0.4 mm 2 mps 745 mmHg 73%
    18:00 +27°C° 0.4 mm 2 mps 745 mmHg 77%
    19:00 +25°C° 0 mm 2 mps 745 mmHg 79%
    20:00 +24°C° 0 mm 2 mps 745 mmHg 82%
    21:00 +21°C° 0 mm 2 mps 745 mmHg 84%
    22:00 +20°C° 0 mm 2 mps 745 mmHg 86%
    23:00 +20°C° 0 mm 2 mps 745 mmHg 88%

    9 June, Tuesday

    Time Temperature Precipitation Wind Pressure Humidity
    00:00 +19°C° 0 mm 2 mps 745 mmHg 89%
    01:00 +19°C° 0 mm 2 mps 745 mmHg 90%
    02:00 +19°C° 0 mm 2 mps 745 mmHg 90%
    03:00 +18°C° 0 mm 2 mps 745 mmHg 90%
    04:00 +20°C° 0 mm 1 mps 746 mmHg 90%
    05:00 +21°C° 0 mm 1 mps 746 mmHg 89%
    06:00 +21°C° 0 mm 1 mps 746 mmHg 88%
    07:00 +21°C° 0 mm 2 mps 746 mmHg 84%
    08:00 +24°C° 0 mm 2 mps 746 mmHg 81%
    09:00 +25°C° 0 mm 2 mps 746 mmHg 77%
    10:00 +26°C° 0.1 mm 2 mps 746 mmHg 73%
    11:00 +27°C° 0.1 mm 3 mps 746 mmHg 70%
    12:00 +28°C° 0.1 mm 3 mps 746 mmHg 66%
    13:00 +28°C° 0 mm 3 mps 746 mmHg 65%
    14:00 +28°C° 0 mm 3 mps 746 mmHg 64%
    15:00 +28°C° 0 mm 2 mps 746 mmHg 63%
    16:00 +28°C° 0 mm 2 mps 746 mmHg 67%
    17:00 +28°C° 0 mm 2 mps 746 mmHg 72%
    18:00 +27°C° 0 mm 2 mps 745 mmHg 76%
    19:00 +26°C° 0.3 mm 2 mps 745 mmHg 81%
    20:00 +24°C° 0.3 mm 2 mps 745 mmHg 86%
    21:00 +23°C° 0.3 mm 2 mps 745 mmHg 91%
    22:00 +21°C° 0.1 mm 2 mps 745 mmHg 92%
    23:00 +21°C° 0.1 mm 2 mps 746 mmHg 93%
    Show more